Location: Hildesheim
(52.1541°N, 9.9521°E)
Time: 14:38:07
(UTC+00:00)

Daily predictions for brighter satellites

Satellite Brightness Start Highest point End
(mag) Time Altitude Azimuth Time Altitude Azimuth Time Altitude Azimuth
BREEZE-M R/B 3.6 18:15:58 10° WSW 18:19:46 67° S 18:30:35 10° E
Okean-O 4.2 18:18:55 10° ESE 18:21:59 19° ENE 18:25:03 10° NNE
CZ-4B R/B 2.9 18:19:55 10° SSE 18:23:40 59° ENE 18:27:39 10° N
Helios 1B rocket 4.1 18:20:34 10° SSW 18:24:08 35° W 18:27:44 10° NNW
USA 306 4.0 18:22:10 10° S 18:24:11 16° SE 18:26:26 10° E
Meteor 1-18 Rocket 4.4 18:20:50 10° NNW 18:26:49 87° ENE 18:32:42 10° SSE
ATLAS CENTAUR R/B 4.4 18:22:47 10° WNW 18:26:57 29° SW 18:32:53 10° SSE
Cosmos 2360 Rocket 2.5 18:21:33 10° SW 18:27:12 75° WNW 18:32:52 10° NNE
Cosmos 1766 Rocket 4.2 18:23:34 10° SSE 18:27:31 35° E 18:31:31 10° NNE
SAR-Lupe-2 4.1 18:24:10 10° S 18:27:42 63° WSW 18:31:17 10° NNW
NOSS 2-1 (C) 3.3 18:26:32 10° NW 18:30:04 78° NE 18:34:48 10° SE
Cosmos 1842 3.6 18:30:09 10° N 18:33:35 38° ENE 18:36:58 10° SE
YAOGAN 1 4.3 18:30:53 10° SSW 18:34:51 36° W 18:38:51 10° NNW
ACS3 Solar Sail 2.4 18:29:35 10° SE 18:35:31 42° ENE 18:41:27 10° N
Cosmos 2322 Rocket 3.1 18:31:57 10° SW 18:37:33 55° NW 18:43:11 10° NNE
Cosmos 2237 Rocket 3.5 18:34:17 10° SE 18:37:59 18° E 18:41:42 10° ENE
USA 290 2.8 18:35:46 10° NNW 18:38:53 40° ENE 18:41:39 12° SE
Cosmos 1674 2.3 18:36:51 10° N 18:40:12 70° ENE 18:43:31 10° SSE
Cosmos 1725 Rocket 4.5 18:34:36 10° SSW 18:40:44 67° WNW 18:46:56 10° N
SPOT 5 3.9 18:40:11 11° ESE 18:43:47 26° ENE 18:47:32 10° N
SeaSat 1 4.0 18:41:14 10° NNE 18:45:48 39° NW 18:50:20 10° WSW
Cosmos 841 Rocket 3.7 18:41:18 10° SSW 18:46:30 77° WNW 18:51:42 10° NNE
Cosmos 2219 Rocket 2.2 18:41:00 10° SSW 18:46:42 89° ESE 18:52:25 10° NNE
Cosmos 1707 2.8 18:44:43 10° N 18:48:11 46° ENE 18:51:36 10° SSE
CSL-04 Rocket 3.7 18:44:06 10° SSE 18:49:25 67° ENE 18:54:43 10° N
Iridium 4 Rocket 3.1 18:45:14 10° N 18:49:29 78° W 18:53:37 10° S
Cosmos 2333 Rocket 3.0 18:45:51 10° SW 18:51:33 57° NW 18:57:15 10° NNE
USA 186 1.7 18:49:00 10° SSE 18:52:12 85° ENE 18:55:28 10° NNW
Cosmos 44 Rocket 4.4 18:48:25 10° NW 18:52:53 41° WSW 18:57:16 10° S
Genesis I 4.3 18:51:26 10° WSW 18:54:45 41° NW 18:58:07 10° NE
Cosmos 1818 3.5 18:50:16 10° SSW 18:55:41 69° SE 19:01:10 10° NE
PSLV R/B 4.4 18:53:29 16° SE 18:55:52 33° ENE 18:59:06 10° N
Cosmos 1328 Rocket 3.6 18:53:01 10° NNW 18:57:19 84° W 19:01:37 10° S
SJ-6B 4.1 18:55:51 10° SSW 18:59:17 39° W 19:02:42 10° NNW
SL-16 R/B 4.2 18:54:26 10° WSW 18:59:27 31° NW 19:04:29 10° NNE
ERS-1 Rocket 4.1 18:57:26 15° ESE 19:00:27 27° ENE 19:04:37 10° N
Meteor 1-4 Rocket 1.7 18:58:16 10° NNW 19:00:58 89° WSW 19:03:23 12° SSE
Cosmos 1125 Rocket 3.8 18:56:11 10° NNW 19:01:15 51° ENE 19:05:10 17° SE
Cosmos 1340 3.5 18:59:16 10° SSW 19:02:26 45° WNW 19:05:37 10° N
SL-08 R/B 3.8 18:57:41 10° N 19:02:35 68° WNW 19:07:28 10° SSW
Nadezhda 4 Rocket 4.2 18:56:59 10° N 19:03:06 53° ENE 19:09:06 11° SSE
ARGOS Delta rocket 4.4 18:58:26 10° S 19:03:31 66° W 19:08:22 10° NNW
Cosmos 1726 2.4 19:00:53 10° SSW 19:03:37 49° WNW 19:06:23 10° N
KORONAS-FOTON 3.7 19:01:21 10° N 19:05:04 88° W 19:08:46 10° S
Cosmos 2369 Rocket 3.8 19:00:55 10° NNW 19:05:19 22° NNE 19:09:13 12° E
MOS 1 Rocket 4.3 19:02:31 17° ESE 19:05:45 34° ENE 19:10:27 10° N
NOSS 2-1 (E) 3.9 19:02:52 10° NW 19:06:31 60° SW 19:10:46 13° SSE
Cosmos 1980 4.4 19:01:45 10° SSE 19:06:40 31° ESE 19:11:35 10° NE
MOS 1-B 4.3 19:03:06 10° SSE 19:08:53 83° ENE 19:14:42 10° NNW
Aureole 1 4.2 19:06:47 10° NNW 19:09:48 66° ENE 19:11:40 23° SE
Helios 1A 3.4 19:07:04 10° N 19:11:07 63° WNW 19:15:07 10° SSW
Feng Yun 1-1 Rocket 4.4 19:05:43 10° SSE 19:11:29 83° WSW 19:17:26 10° NNW
In-Cosmos 22 4.3 19:06:47 10° N 19:12:31 63° ENE 19:17:28 13° SSE
CARTOSAT-1 3.9 19:08:49 10° S 19:13:03 66° WSW 19:17:18 10° NNW
Cosmos 1743 3.8 19:09:39 10° SSW 19:13:04 43° WNW 19:16:31 10° N
Cosmos 1400 Rocket 3.9 19:09:38 10° NNW 19:13:18 43° W 19:16:55 10° SSW
Cosmos 1513 Rocket 4.4 19:07:32 10° S 19:13:32 69° E 19:19:37 10° NNE
Cosmos 2322 3.6 19:08:07 10° SSW 19:13:46 82° ESE 19:19:27 10° NNE
ATLAS 2AS CENTAUR R/B 4.0 19:08:43 10° W 19:15:26 40° NNW 19:21:56 10° NE
NOSS 2-1 (D) 4.2 19:12:04 10° NW 19:15:40 48° SW 19:19:41 14° SSE
Cosmos 1464 Rocket 4.1 19:12:39 10° S 19:18:50 60° E 19:25:06 10° NNE
IKONOS-2 4.4 19:18:14 10° NNE 19:22:21 60° ESE 19:26:27 10° S
Cosmos 1315 Rocket 3.1 19:18:59 10° N 19:22:51 48° ENE 19:24:36 28° SE
Cosmos 1943 Rocket 2.1 19:19:33 10° NNW 19:25:05 77° ENE 19:28:44 22° SE
NOSS 0 Rocket 4.0 19:20:10 10° S 19:26:14 56° ESE 19:32:19 10° NE
Meteor 1-13 Rocket 4.3 19:20:54 10° N 19:26:51 76° ENE 19:31:39 16° SSE
Kosmos-1783 4.0 19:29:30 10° SW 19:30:36 23° SW 19:30:36 23° SW
Cosmos 1536 2.5 19:28:55 10° S 19:32:43 76° E 19:36:34 10° NNE
CZ-4 R/B 3.4 19:30:34 10° SSW 19:33:47 26° W 19:37:05 10° NW
COSMOS 2428 2.7 19:29:01 10° SSW 19:34:45 87° WNW 19:40:32 10° NNE
Okean 3 Rocket 3.5 19:30:16 10° S 19:34:45 84° E 19:39:14 10° NNE
SL-16 R/B 4.0 19:38:20 14° ENE 19:38:20 14° ENE 19:39:37 10° ENE
Cosmos 1814 Rocket 4.1 19:31:36 10° SSW 19:36:55 83° WNW 19:42:12 10° NNE
Okean O Rocket 2.0 19:34:43 13° S 19:38:38 65° WSW 19:43:04 10° NNW
Cosmos 2034 Rocket 4.0 19:32:56 10° S 19:38:59 58° E 19:45:02 10° NNE
Sich 1 3.4 19:39:36 35° SE 19:40:40 42° E 19:44:45 10° NNE
MOS 1 4.2 19:38:01 19° SSE 19:42:17 86° ENE 19:48:00 10° NNW
SL-14 R/B 3.5 19:39:21 10° N 19:43:01 45° ENE 19:43:35 42° ESE
Meteor 1-23 Rocket 4.2 19:37:59 10° N 19:43:36 64° ENE 19:46:35 28° SSE
Cosmos 1515 Rocket 4.0 19:41:42 10° NNW 19:45:59 59° W 19:49:29 15° S
Resurs 01 Rocket 3.3 19:43:27 10° SSW 19:47:27 33° W 19:51:28 10° NNW
DELTA 2 DEB (DPAF) 4.0 19:44:57 10° NNE 19:49:05 56° ESE 19:50:30 36° SSE
USA 276 3.2 19:47:14 10° W 19:49:14 29° SW 19:49:14 29° SW
Cosmos 2278 Rocket 2.8 19:45:03 10° NW 19:50:34 53° WSW 19:54:37 18° S
Cosmos 2228 Rocket 3.9 19:46:46 10° N 19:50:57 34° ENE 19:51:34 33° E
USA 267 3.4 19:47:17 23° E 19:51:32 72° NNE 19:58:05 10° WNW
Lacrosse 4 Rocket 4.1 19:49:27 10° WNW 19:52:05 16° WSW 19:54:42 10° SW
Terra 2.0 19:51:19 38° ESE 19:52:47 54° ENE 19:57:23 10° N
Meteor 2-9 Rocket 4.0 19:50:14 13° S 19:55:01 72° E 20:00:27 10° NNE
CZ-4B R/B 4.5 19:50:08 10° SSW 19:55:12 38° W 20:00:13 10° NNW
NOSS 3-3 (A) 4.2 19:55:13 35° SE 19:55:40 35° ESE 20:01:17 10° NE
BlueWalker 3 3.7 19:53:19 10° W 19:56:07 20° SW 19:56:57 19° SSW
USA 306 2.3 19:52:50 10° SW 19:56:02 63° S 19:56:02 63° S
Okean-O 2.8 19:55:32 27° S 19:57:53 70° WSW 20:02:19 10° NNW
USA 59 Rocket 1.9 19:58:09 10° WNW 20:01:28 25° SW 20:04:17 15° S
Cosmos 1656 Rocket 4.1 19:56:20 10° NNW 20:01:51 48° NE 20:03:42 35° E
Meteor 1-11 Rocket 3.7 19:58:17 10° SSW 20:03:56 87° WNW 20:09:31 10° NNE
Cosmos 1805 3.0 20:04:26 64° ENE 20:04:26 64° ENE 20:07:52 10° NNE
Cosmos 1500 Rocket 3.4 20:04:04 36° S 20:05:49 80° E 20:10:11 10° NNE
Spot 2 Rocket 3.5 20:05:32 44° SE 20:06:54 61° ENE 20:11:53 10° N
Cosmos 2279 Rocket 4.5 20:09:28 36° ESE 20:10:24 38° E 20:16:04 10° NNE
Cosmos 1743 Rocket 3.4 20:10:32 59° SSE 20:11:08 69° E 20:15:27 10° NNE
CRYOSAT 2 4.2 20:07:27 10° N 20:12:22 84° E 20:14:19 37° S
Cosmos 1733 4.1 20:10:44 16° SW 20:13:10 42° WNW 20:16:29 10° N
Cosmos 2298 Rocket 4.0 20:08:34 10° NNW 20:13:54 86° WSW 20:15:36 45° SSE
USA 32 4.1 20:10:08 10° N 20:15:23 74° W 20:18:00 30° S
NOSS 3-4 (A) 3.9 20:10:55 10° NW 20:17:24 63° NE 20:20:36 35° ESE
NOSS 3-4 (C) 3.9 20:11:01 10° NW 20:17:30 63° NE 20:20:42 35° ESE
Cosmos 2150 Rocket 3.9 20:12:28 10° NNW 20:17:40 81° WSW 20:19:10 47° SSE
ACS3 Solar Sail 2.8 20:13:23 10° SSW 20:19:32 47° W 20:25:42 10° NNW
Cosmos 2237 Rocket 2.1 20:15:38 10° SSW 20:21:16 90° NW 20:26:57 10° NNE
TRAILBLAZER 4.5 20:16:56 10° NW 20:21:34 90° WSW 20:22:10 68° SE
SPOT 5 3.5 20:19:20 26° SSW 20:21:37 48° W 20:26:00 10° NNW
Cosmos 1408 Rocket 4.1 20:18:57 18° SSW 20:22:07 57° WNW 20:26:29 10° N
Cosmos 1570 Rocket 4.0 20:17:27 10° SSW 20:22:45 85° WNW 20:28:03 10° NNE
CZ-4C R/B 4.1 20:20:23 10° NNE 20:22:58 38° NE 20:22:58 38° NE
IRS-1C Rocket 4.2 20:22:24 39° S 20:24:22 74° WSW 20:29:40 10° NNW
Cosmos 158 Rocket 3.7 20:22:18 21° SSW 20:25:36 90° WNW 20:30:31 10° NNE
Okean 1-7 4.2 20:21:43 10° N 20:24:59 30° NE 20:24:59 30° NE
Cosmos 2297 3.8 20:20:13 10° NNW 20:25:49 60° NE 20:27:01 49° ESE
Okean 3 3.8 20:24:09 10° N 20:27:43 50° NE 20:27:43 50° NE
Meteor 1-21 4.2 20:25:06 10° NNW 20:30:52 84° W 20:32:42 46° S
Cosmos 2219 Rocket 4.4 20:26:42 10° W 20:31:24 26° NW 20:36:05 10° NNE
ERS-1 Rocket 3.4 20:37:22 40° SSW 20:38:54 57° W 20:43:52 10° NNW
Ariane Rocket 2.9 20:38:38 65° S 20:39:24 87° W 20:44:31 10° NNW
Cosmos 836 Rocket 4.4 20:38:30 37° SSW 20:40:39 89° WNW 20:46:00 10° NNE
MOS 1 Rocket 4.4 20:41:41 30° SSW 20:43:43 44° W 20:48:45 10° NNW
Aureole 3 Rocket 4.3 20:38:55 10° SSW 20:45:53 59° WNW 20:50:53 10° N
Cosmos 1805 Rocket 4.3 20:44:51 36° SW 20:46:12 49° WNW 20:50:27 10° N
Cosmos 2369 Rocket 2.1 20:44:36 10° NNW 20:50:21 72° ENE 20:50:59 66° ESE
Cosmos 1980 4.3 20:44:51 10° SW 20:50:27 58° NW 20:56:05 10° NNE
SPOT 3 Rocket 3.6 20:54:51 63° SSW 20:55:28 70° WSW 21:00:38 10° NNW
Cosmos 1862 Rocket 3.7 20:51:48 10° NNW 20:55:48 70° NW 20:55:48 70° NW
Cosmos 839 Rocket 4.5 20:48:36 10° SW 20:56:58 78° NW 21:03:43 10° NE
Cosmos 2266 Rocket 4.0 20:51:39 10° N 20:57:49 60° ENE 20:58:24 58° E
USA 215 4.3 20:51:34 10° ENE 21:03:35 13° SSW 21:04:18 10° SW
Cosmos 1633 Rocket 4.0 20:59:29 40° NNE 20:59:29 40° NNE 21:02:25 10° NNE
Cosmos 1707 Rocket 4.0 20:56:42 10° NNW 21:00:51 60° WNW 21:00:51 60° WNW
Cosmos 1975 3.8 21:03:30 43° NW 21:03:30 43° NW 21:06:43 10° N
Okean 2 4.4 21:01:35 10° N 21:04:19 42° N 21:04:19 42° N
Cosmos 773 Rocket 3.9 21:06:38 83° WSW 21:06:46 85° WNW 21:12:06 10° NNE
Cosmos 1666 Rocket 4.2 21:08:58 51° N 21:08:58 51° N 21:12:16 10° N
ATLAS 2AS CENTAUR R/B 4.2 21:01:50 10° WNW 21:08:04 32° N 21:14:07 10° ENE
Cosmos 1943 Rocket 4.0 21:04:10 10° NW 21:08:14 21° WSW 21:10:15 18° SW
Cosmos 1634 Rocket 4.3 21:06:53 35° SW 21:09:36 65° WNW 21:15:56 10° N
SL-16 R/B 2.2 21:20:10 69° NE 21:20:10 69° NE 21:25:10 10° NNE
Cosmos 1655 Rocket 4.0 21:22:23 10° N 21:28:46 67° ENE 21:28:49 67° E
NOSS 3-3 (C) 3.9 21:28:03 43° WSW 21:30:05 77° NW 21:36:48 10° NE
Cosmos 2142 Rocket 4.4 21:29:56 69° SW 21:30:34 76° WNW 21:36:45 10° N
Terra 3.6 21:30:01 23° WSW 21:30:40 24° W 21:34:28 10° NW
Cosmos 2263 4.2 21:25:43 10° NNW 21:31:09 77° WNW 21:31:09 77° WNW
MetOp-A 4.5 21:34:24 51° NNW 21:34:24 51° NNW 21:38:05 10° NNW
USA 267 3.3 21:34:37 61° SW 21:34:41 61° SW 21:41:11 10° WNW
ARIANE 5 R/B 4.0 21:40:25 35° N 21:40:25 35° N 21:43:04 10° N
Meteor 2-5 Rocket 4.3 21:36:21 10° N 21:41:41 52° NE 21:41:41 52° NE
Cosmos 2344 4.3 21:36:41 10° NW 21:44:15 55° NNE 21:48:51 31° E
NOSS 3-3 (A) 4.2 21:42:20 22° WSW 21:46:08 64° NW 21:52:50 10° NE
BREEZE-M DEB (TANK) 4.2 21:39:45 10° W 21:48:29 43° WSW 21:48:29 43° WSW
ASTEX 1 4.3 21:51:43 43° NNE 21:51:43 43° NNE 21:55:04 10° N
Meteor 1-24 Rocket 4.1 21:49:42 10° N 21:55:00 61° NE 21:55:00 61° NE
Cosmos 2237 Rocket 4.2 22:01:30 10° W 22:06:06 25° NW 22:10:42 10° NNE
NOSS 3-4 (A) 4.3 22:01:51 10° NW 22:08:00 46° WSW 22:08:00 46° WSW
NOSS 3-4 (C) 4.3 22:01:56 10° NW 22:08:06 46° WSW 22:08:06 46° WSW
Cosmos 1607 4.3 22:18:07 55° W 22:19:11 63° NW 22:25:35 10° NE
Cosmos 2056 Rocket 4.4 22:19:01 10° NNW 22:22:48 46° N 22:22:48 46° N
ATLAS CENTAUR R/B 4.2 22:32:51 13° NNE 22:32:51 13° NNE 22:33:33 10° NNE
Cosmos 2369 Rocket 3.9 22:29:21 10° NW 22:32:45 23° W 22:32:45 23° W
USA 215 3.3 22:34:39 10° ENE 22:41:13 77° NNW 22:41:42 73° WNW
Cosmos 1980 Rocket 4.0 22:52:50 10° NNW 22:57:24 25° NE 22:59:00 22° ENE
ATLAS 2AS CENTAUR R/B 3.3 22:53:40 10° NW 23:00:26 52° NNE 23:01:46 46° ENE
SL-16 R/B 4.0 23:01:58 21° WNW 23:04:15 27° NW 23:09:02 10° NNE
Cosmos 1603 4.5 23:17:54 49° N 23:17:54 49° N 23:22:09 10° NNE
Cosmos 1553 Rocket 4.3 23:19:34 61° NNW 23:19:34 61° NNW 23:24:56 10° N
Cosmos 1709 Rocket 4.3 23:17:42 10° N 23:23:10 66° N 23:23:10 66° N
Cosmos 1943 4.2 23:27:44 40° NW 23:27:44 40° NW 23:32:44 10° NNE
H-2A R/B 4.4 23:25:34 10° NNE 23:27:12 21° NE 23:27:12 21° NE
Cosmos 1833 Rocket 4.3 23:33:03 25° ENE 23:33:03 25° ENE 23:35:59 10° NE
Cosmos 1697 Rocket 3.5 23:37:36 10° NNW 23:41:47 49° N 23:41:47 49° N
